Temp
45 45 44 43 42 42 41 40 40 39 39 39 39 38 38 38 38 37 37 36 35 35 35 35 35 36 35 35 35 36 36 37 35 38 40 41 40 39 41 42 42 42 43
43 43 42 42 41 40 38 38 38 37 37 37 37 37 37 36 36 35 34 34 33 33 33 33 33 36 33 34 36 38 37 38 35 32 36 37 37 39 40 39 41 42 41
42 41 40 39 38 37 36 37 36 35 35 35 35 35 34 34 34 34 34 33 32 32 32 31 31 31 34 36 36 36 36 37 36 33 32 36 36 37 37 37 38 38 40
40 39 37 36 37 36 35 34 34 34 34 33 33 32 32 32 32 33 33 32 32 32 32 31 31 34 34 34 34 34 35 34 34 32 32 33 34 36 35 33 32 36 35
38 37 36 35 35 33 32 32 32 32 32 32 32 31 31 32 33 33 33 32 33 31 30 32 35 35 36 37 35 34 33 32 32 31 31 32 32 32 31 33 31 33 34
37 35 34 33 32 31 31 32 32 32 31 32 31 31 30 32 37 37 36 33 34 32 30 32 34 35 35 37 38 38 37 33 31 30 30 30 31 31 32 32 30 28 27
33 32 32 31 31 32 32 32 31 31 31 30 30 29 29 29 36 36 36 34 33 33 33 33 33 34 35 35 36 37 36 37 38 34 30 30 30 32 31 29 28 27 28
32 32 31 32 31 31 30 30 30 30 30 29 29 28 28 30 35 37 37 34 34 34 34 34 33 33 33 33 33 33 33 33 33 33 32 32 32 32 30 28 26 25 28
32 32 32 31 29 28 27 27 28 27 25 24 27 24 23 26 34 37 35 33 31 30 32 34 34 32 35 36 33 31 32 32 34 36 37 37 35 33 32 21 19 19 22
33 33 31 29 28 27 28 27 26 25 26 26 26 24 23 20 30 35 35 28 27 28 30 32 35 36 37 37 33 32 29 30 31 31 31 29 26 24 28 17 20 15 17
31 30 28 28 26 26 26 25 23 22 22 16 19 19 17 20 23 34 36 29 28 32 32 32 34 36 36 37 37 31 31 34 31 28 19 16 17 18 20 21 21 19 14
30 28 26 25 27 25 24 21 20 18 15 13 12 14 18 20 28 32 35 36 36 31 31 32 32 35 36 37 35 36 36 32 26 14 11 14 20 21 22 21 20 20 22
28 25 24 24 24 23 21 20 18 14 14 13 14 11 14 19 19 31 34 35 35 32 33 34 36 35 35 34 33 33 28 25 27 19 20 21 20 20 21 21 20 20 20
25 23 22 22 21 21 22 21 15 12 9 11 9 9 11 17 19 21 25 30 31 32 32 30 30 34 34 34 27 26 25 20 21 24 25 18 18 17 17 19 18 19 15
24 22 21 21 20 18 18 17 17 13 14 8 7 9 9 14 23 31 31 30 30 31 32 23 16 18 20 23 20 19 16 18 19 20 18 18 18 18 17 19 18 15 12
21 21 21 19 17 17 16 16 21 25 27 28 28 22 13 27 30 32 33 34 33 34 27 24 24 18 23 22 19 17 18 18 19 18 16 16 13 14 16 17 15 11 9
23 19 17 17 15 13 12 12 7 11 22 23 25 25 26 27 29 31 32 32 30 29 16 11 15 20 22 21 16 16 17 19 18 17 13 12 15 14 14 14 14 13 9
17 16 15 14 13 9 8 8 7 6 2 2 15 20 24 25 27 29 28 22 9 11 2 6 13 17 14 13 14 14 15 16 16 14 12 9 8 8 8 7 8 6 5
12 9 8 7 7 8 7 6 3 1 -1 -2 -1 12 12 22 24 23 22 1 -1 -0 2 5 6 7 7 8 11 12 12 12 12 9 5 5 5 5 3 2 3 5 5
8 9 7 5 2 1 2 2 1 1 -0 -1 0 1 2 5 1 -5 -6 -7 -8 -7 -4 -1 1 0 1 5 8 8 8 8 6 3 3 2 3 3 5 0 -0 2 -2
5 4 3 -0 -1 -1 0 0 1 -2 -2 -3 -0 4 20 5 -3 -8 -8 -8 -8 -8 -7 -6 -3 -2 0 2 5 6 5 6 3 2 1 1 1 3 2 4 1 -3 -5
4 3 1 1 -1 0 -2 -1 -1 -3 -5 -4 -2 -1 15 -3 -7 -8 -8 -9 -9 -8 -6 -5 -4 -0 1 3 4 5 6 4 0 0 0 -0 -1 1 -0 -0 -2 -3 -4
3 1 1 -5 -3 -4 -7 -9 -8 -8 -8 -9 -8 -6 -8 -9 -10 -10 -9 -9 -10 -8 -6 -4 -2 -1 2 5 5 4 3 4 3 -1 -1 -1 -1 -3 -5 -3 -4 -8 -6
3 3 1 -2 -4 -6 -5 -9 -11 -8 -10 -10 -13 -12 -9 -11 -12 -11 -9 -8 -10 -9 -8 -6 -4 -2 -1 3 5 4 3 2 1 0 0 -0 0 -2 -3 -5 -3 -4 -3
-1 -0 0 -1 -4 -5 -7 -10 -8 -10 -10 -9 -11 -12 -12 -13 -12 -12 -11 -10 -8 -6 -4 -4 -3 -1 1 2 5 5 4 6 6 2 -1 -2 -1 -2 -2 -3 -4 -5 -6
-2 -3 -4 -7 -8 -8 -6 -4 -3 -2 -3 -5 -4 -8 -11 -12 -10 -10 -9 -9 -6 -4 -4 -4 -2 0 1 4 5 6 7 8 6 4 0 -1 -2 -2 -4 -5 -5 -6 -6
MSLP
1022.19 1022.69 1023.25 1024.09 1024.81 1025.48 1025.97 1026.44 1026.62 1026.98 1027.28 1027.43 1027.82 1028.08 1028.36 1028.28 1028.25 1028.38 1028.54 1028.71 1028.69 1028.68 1028.61 1028.49 1028.44 1028.18 1027.87 1027.54 1027.26 1026.76 1026.49 1026.24 1024.96 1022.04 1022.72 1022.09 1021.59 1020.98 1020.10 1019.61 1018.94 1018.15 1017.33
1022.99 1023.22 1023.82 1024.57 1025.34 1025.93 1026.38 1026.82 1027.08 1027.49 1027.79 1027.74 1027.99 1028.29 1028.55 1028.57 1028.60 1028.59 1028.65 1028.84 1028.79 1028.77 1028.72 1028.51 1028.42 1028.23 1027.98 1027.70 1027.30 1027.00 1026.77 1026.38 1025.76 1023.78 1022.99 1022.23 1021.95 1021.26 1020.46 1019.47 1018.63 1018.05 1017.36
1023.60 1023.73 1024.66 1025.20 1025.75 1026.37 1026.42 1026.87 1027.23 1027.68 1027.70 1027.82 1028.19 1028.58 1028.87 1028.74 1028.74 1028.77 1028.73 1028.83 1028.78 1028.78 1028.78 1028.65 1028.47 1028.37 1028.06 1027.53 1027.37 1027.09 1026.74 1026.19 1025.68 1024.75 1022.99 1022.75 1021.80 1021.23 1020.07 1019.36 1018.52 1017.68 1017.04
1023.81 1024.16 1024.95 1025.63 1026.18 1026.50 1027.02 1027.10 1027.35 1027.64 1027.84 1027.84 1028.25 1028.63 1029.02 1028.96 1028.71 1028.67 1028.71 1028.85 1028.98 1028.88 1028.88 1028.96 1028.72 1028.34 1028.00 1027.74 1027.43 1026.86 1026.42 1025.91 1025.28 1024.52 1023.50 1022.53 1022.00 1021.00 1020.43 1019.52 1017.66 1017.59 1016.51
1023.91 1024.55 1025.22 1025.76 1026.38 1026.93 1027.19 1027.30 1027.69 1027.78 1027.97 1028.18 1028.41 1028.73 1028.82 1028.81 1028.72 1028.67 1028.64 1028.77 1028.82 1028.74 1028.83 1028.82 1028.38 1028.15 1027.73 1027.39 1027.03 1026.33 1025.93 1025.43 1024.82 1024.16 1023.32 1022.39 1021.66 1020.77 1020.30 1019.54 1018.54 1017.35 1016.61
1024.17 1024.96 1025.53 1026.24 1026.84 1027.00 1027.18 1027.44 1027.86 1027.94 1028.06 1028.10 1028.31 1028.66 1028.82 1028.74 1028.41 1028.51 1028.62 1028.76 1028.72 1028.85 1028.75 1028.46 1028.13 1027.72 1027.31 1026.97 1026.44 1025.95 1025.63 1025.09 1024.53 1024.02 1023.21 1022.45 1021.54 1021.27 1020.28 1019.66 1019.20 1018.00 1016.27
1024.17 1024.95 1025.66 1026.37 1026.84 1027.06 1027.27 1027.51 1027.71 1027.80 1027.90 1028.08 1028.43 1028.71 1028.86 1028.86 1028.49 1028.52 1028.65 1028.64 1028.58 1028.45 1028.39 1028.06 1027.78 1027.25 1026.81 1026.42 1026.01 1025.51 1025.17 1024.77 1024.19 1023.64 1023.08 1022.57 1021.60 1021.15 1020.83 1020.00 1019.59 1018.86 1017.53
1024.37 1025.09 1025.85 1026.23 1026.62 1027.09 1027.39 1027.47 1027.48 1027.53 1027.93 1028.29 1028.55 1028.79 1028.79 1028.53 1028.10 1028.00 1028.16 1028.29 1028.24 1028.06 1027.71 1027.53 1027.20 1026.77 1026.62 1026.17 1025.58 1025.02 1024.46 1024.16 1023.74 1023.38 1023.08 1022.45 1021.80 1021.32 1021.17 1020.75 1020.18 1019.14 1017.68
1024.28 1024.76 1025.48 1025.89 1026.49 1027.00 1027.24 1027.30 1027.36 1027.71 1028.15 1028.48 1028.66 1028.75 1028.73 1028.51 1028.01 1027.76 1027.74 1027.90 1027.59 1027.55 1027.28 1026.81 1026.60 1026.43 1026.12 1025.62 1025.08 1024.53 1023.98 1023.54 1023.19 1022.86 1022.34 1021.95 1021.66 1021.58 1021.16 1021.01 1020.45 1019.76 1018.51
1023.53 1024.22 1025.03 1025.75 1026.26 1026.66 1026.89 1027.23 1027.60 1027.90 1028.24 1028.62 1028.82 1028.65 1028.41 1028.37 1027.90 1027.55 1027.20 1027.22 1027.08 1027.00 1026.82 1026.58 1026.24 1025.87 1025.59 1025.07 1024.65 1024.19 1023.83 1023.40 1023.04 1022.74 1022.29 1022.25 1022.23 1022.03 1021.56 1021.65 1021.14 1020.56 1019.71
1023.47 1024.41 1025.19 1025.73 1026.14 1026.42 1026.89 1027.31 1027.63 1028.03 1028.42 1028.74 1028.76 1028.68 1028.45 1028.33 1028.17 1027.05 1026.61 1026.64 1026.63 1026.53 1026.50 1026.30 1025.86 1025.34 1025.03 1024.46 1023.87 1023.77 1023.45 1022.97 1022.89 1022.82 1022.64 1022.55 1022.50 1022.24 1021.70 1021.39 1021.12 1020.75 1020.25
1023.17 1024.24 1025.08 1025.59 1026.12 1026.43 1027.00 1027.36 1027.83 1028.22 1028.73 1029.13 1029.21 1028.83 1028.34 1027.97 1027.11 1026.77 1026.70 1026.47 1026.36 1026.32 1026.08 1025.79 1025.54 1025.01 1024.44 1024.06 1023.82 1023.49 1023.21 1023.04 1022.95 1022.99 1023.20 1022.93 1022.54 1022.20 1021.65 1021.35 1021.10 1020.87 1020.58
1023.31 1024.36 1025.17 1025.75 1026.30 1026.65 1026.97 1027.56 1027.98 1028.30 1028.64 1028.79 1028.99 1028.62 1028.25 1027.64 1027.54 1026.86 1026.63 1026.28 1026.23 1025.99 1025.66 1025.15 1024.59 1024.27 1023.79 1023.73 1023.78 1023.67 1023.68 1023.50 1023.11 1023.46 1023.31 1022.93 1022.51 1022.17 1021.60 1021.18 1020.90 1020.69 1020.53
1023.25 1024.31 1025.19 1025.76 1026.36 1026.58 1026.95 1027.24 1027.77 1028.02 1028.10 1028.51 1028.51 1028.01 1027.85 1027.56 1027.35 1027.22 1026.74 1026.14 1025.88 1025.37 1024.88 1024.62 1024.37 1023.78 1023.58 1023.51 1023.55 1023.66 1023.77 1023.70 1023.53 1023.22 1023.01 1022.65 1022.40 1022.11 1021.78 1021.42 1021.08 1020.84 1020.76
1023.32 1024.40 1025.18 1025.80 1026.03 1026.28 1026.81 1027.09 1027.06 1027.00 1027.29 1028.23 1027.77 1027.42 1027.56 1027.29 1026.89 1026.24 1025.80 1025.47 1025.33 1024.84 1024.20 1024.35 1024.11 1023.95 1023.81 1023.55 1023.48 1023.55 1023.63 1023.65 1023.53 1023.28 1023.07 1022.89 1022.62 1022.35 1022.06 1021.72 1021.51 1021.46 1021.54
1023.41 1024.43 1025.39 1025.59 1025.75 1026.52 1026.97 1027.15 1026.81 1026.52 1026.65 1027.03 1026.60 1026.51 1027.04 1026.40 1026.21 1025.75 1025.20 1024.96 1024.68 1024.07 1023.93 1024.39 1024.46 1024.21 1023.91 1023.62 1023.54 1023.53 1023.46 1023.53 1023.46 1023.36 1023.23 1023.13 1023.13 1022.87 1022.54 1022.15 1022.07 1022.24 1022.19
1023.26 1024.47 1025.01 1025.45 1026.17 1026.71 1027.08 1027.18 1027.62 1027.56 1027.26 1027.28 1026.72 1026.52 1026.39 1026.12 1025.70 1025.26 1024.92 1024.67 1024.50 1024.28 1024.85 1025.00 1024.94 1024.61 1024.10 1023.64 1023.48 1023.53 1023.49 1023.46 1023.52 1023.52 1023.55 1023.45 1023.17 1022.97 1022.92 1022.78 1022.76 1022.80 1022.79
1023.41 1023.94 1024.65 1025.49 1026.15 1026.64 1027.10 1027.51 1027.85 1028.55 1028.46 1027.78 1027.22 1026.77 1026.22 1025.96 1025.59 1025.21 1025.15 1025.10 1025.48 1025.32 1025.75 1025.65 1025.35 1024.85 1024.22 1023.79 1023.55 1023.47 1023.39 1023.43 1023.53 1023.64 1023.72 1023.69 1023.54 1023.53 1023.37 1023.27 1023.24 1023.22 1023.24
1023.39 1024.31 1025.07 1025.75 1026.27 1026.67 1027.12 1027.84 1028.40 1028.27 1028.06 1028.19 1027.71 1027.05 1026.89 1026.07 1025.77 1025.77 1025.58 1026.12 1026.88 1026.88 1026.49 1026.12 1025.44 1024.91 1024.46 1023.99 1023.79 1023.65 1023.64 1023.67 1023.63 1023.75 1023.86 1023.83 1023.76 1023.83 1023.73 1023.66 1023.67 1023.61 1023.57
1023.43 1024.19 1024.90 1025.45 1026.10 1026.76 1027.33 1027.77 1027.86 1027.93 1028.01 1028.08 1027.95 1027.73 1027.12 1026.75 1026.52 1026.75 1026.67 1027.10 1027.37 1027.29 1026.94 1026.44 1025.76 1025.33 1025.05 1024.81 1024.25 1023.97 1023.94 1024.02 1024.06 1024.09 1024.03 1023.88 1023.81 1023.86 1023.84 1023.89 1023.94 1023.98 1023.92
1023.57 1024.31 1024.82 1025.69 1026.51 1026.98 1027.28 1027.31 1027.46 1027.83 1028.06 1028.12 1027.93 1027.23 1026.55 1026.95 1027.58 1027.69 1027.55 1027.55 1027.52 1027.26 1026.97 1026.63 1026.07 1025.53 1025.29 1025.02 1025.06 1024.70 1024.32 1024.35 1024.37 1024.37 1024.29 1024.05 1023.99 1024.00 1023.90 1023.87 1023.96 1024.10 1024.07
1023.29 1024.00 1024.87 1025.60 1026.21 1026.72 1026.81 1026.77 1027.34 1027.59 1027.73 1027.91 1027.79 1027.16 1026.95 1027.06 1027.25 1027.57 1027.55 1027.49 1027.57 1027.25 1026.78 1026.45 1026.11 1025.52 1025.13 1025.11 1024.92 1025.12 1024.96 1024.74 1024.70 1024.61 1024.46 1024.27 1024.12 1024.08 1024.04 1024.00 1024.03 1024.06 1024.20
1023.04 1023.78 1024.54 1025.29 1025.60 1026.03 1026.57 1026.83 1027.26 1027.40 1027.64 1027.83 1027.59 1027.46 1027.36 1027.19 1027.22 1027.31 1027.35 1027.36 1027.03 1026.50 1026.03 1025.83 1025.69 1025.45 1025.00 1024.86 1024.84 1024.89 1025.10 1024.98 1024.86 1024.94 1024.69 1024.37 1024.16 1024.08 1024.05 1024.05 1024.12 1024.14 1024.12
1023.11 1023.29 1023.86 1024.68 1025.32 1025.76 1026.08 1026.50 1026.76 1026.80 1027.28 1027.57 1027.38 1027.35 1027.22 1027.00 1027.00 1027.05 1027.05 1026.73 1026.52 1026.08 1025.70 1025.47 1025.23 1025.10 1024.74 1024.46 1024.34 1024.44 1024.53 1024.67 1024.76 1024.68 1024.56 1024.41 1024.14 1023.99 1023.97 1023.97 1023.90 1023.93 1023.99
1022.64 1023.15 1023.56 1024.04 1024.63 1025.03 1025.40 1025.88 1026.06 1026.33 1026.66 1026.62 1026.86 1026.91 1026.68 1026.63 1026.71 1026.73 1026.63 1026.20 1025.77 1025.51 1025.21 1024.96 1024.50 1024.38 1024.19 1023.94 1023.71 1023.74 1023.66 1023.67 1023.79 1024.00 1024.13 1024.15 1023.90 1023.75 1023.78 1023.83 1023.76 1023.82 1023.92
1022.08 1022.69 1023.14 1023.63 1024.06 1024.43 1024.73 1025.04 1025.30 1025.55 1025.67 1025.83 1026.06 1026.19 1026.23 1026.19 1026.12 1026.08 1026.08 1025.67 1025.15 1024.73 1024.55 1024.33 1023.94 1023.73 1023.49 1023.28 1023.04 1022.98 1022.93 1022.83 1022.82 1023.04 1023.37 1023.61 1023.49 1023.39 1023.48 1023.48 1023.48 1023.57 1023.55
Wind_Speed
10 10 12 10 9 8 8 6 6 6 6 7 6 6 6 5 5 5 5 5 6 5 4 5 5 5 3 4 4 3 3 5 11 14 11 13 17 16 14 13 13 13 12
9 11 11 10 9 9 7 6 6 7 6 6 6 6 5 5 5 5 5 4 5 6 6 6 6 6 6 5 5 8 7 8 9 18 15 15 17 16 16 18 13 11 12
9 11 10 9 8 7 7 7 6 6 6 6 6 6 4 4 4 5 5 4 4 4 5 5 6 6 8 6 7 7 8 8 8 11 15 14 13 12 14 13 13 14 9
8 10 10 8 7 7 6 6 6 5 6 6 5 5 4 4 4 4 5 5 5 4 4 5 5 6 7 9 8 8 8 8 9 9 11 13 11 12 10 12 15 11 12
10 9 9 7 7 6 6 6 6 6 5 5 5 5 4 4 3 5 4 4 7 7 5 6 6 8 11 11 8 7 8 8 8 8 11 11 11 12 12 12 12 13 13
9 9 7 7 6 6 6 6 6 6 5 5 5 5 4 2 5 6 6 4 6 7 7 7 7 9 9 15 16 17 13 9 10 9 10 11 14 12 12 10 12 12 13
10 9 8 7 7 6 6 6 6 5 5 5 5 4 4 3 3 5 6 4 4 5 6 7 6 6 9 8 11 13 12 15 17 12 12 11 14 11 9 13 12 11 11
9 9 7 7 7 6 6 5 5 4 5 3 3 1 1 2 3 4 6 4 5 5 6 8 8 8 7 9 10 9 9 7 9 6 7 10 9 8 8 10 11 9 9
11 10 8 7 7 6 5 5 4 4 2 2 1 3 2 4 8 7 4 3 3 5 5 6 7 6 10 18 10 11 10 7 7 11 15 15 12 13 11 5 7 7 6
13 10 8 7 7 6 5 5 3 2 2 1 2 3 3 4 8 7 6 2 1 3 4 4 12 13 17 17 10 9 8 9 7 6 5 4 5 5 9 2 4 3 4
9 8 7 6 6 5 5 3 3 3 2 1 1 3 4 3 5 10 10 2 2 5 5 6 6 13 14 17 17 3 8 11 8 5 3 3 3 3 3 3 3 2 2
11 10 8 6 5 5 6 4 3 4 3 0 0 2 3 3 6 9 10 11 10 6 6 6 7 15 15 16 12 13 14 10 3 3 2 3 4 4 4 3 3 2 2
11 9 7 6 5 5 5 4 3 3 3 1 1 1 2 2 3 10 11 11 13 9 8 11 18 18 16 8 9 10 5 4 3 3 4 3 2 3 4 3 3 3 2
11 9 7 7 6 4 3 3 3 2 2 1 2 2 2 3 2 3 4 5 9 9 12 7 9 15 15 12 2 3 2 2 3 3 3 2 2 3 2 2 2 2 2
9 7 6 5 6 5 3 3 3 3 4 3 4 3 1 2 3 10 10 6 7 9 8 2 3 3 3 3 2 1 1 2 2 2 2 2 2 2 2 2 2 2 2
9 7 6 6 4 4 3 2 4 0 1 4 4 1 2 7 11 13 14 13 14 16 2 2 6 3 6 5 3 2 1 2 2 3 2 2 2 2 2 2 2 2 1
9 8 5 5 4 5 3 3 3 4 4 3 4 7 7 8 10 12 11 13 15 13 2 2 3 6 7 5 2 2 2 1 2 2 2 2 2 2 2 2 1 1 2
7 9 6 5 5 4 4 4 3 3 2 3 5 6 7 9 10 10 13 10 4 6 1 2 5 6 4 2 2 2 1 1 1 1 2 2 2 1 1 1 2 0 0
7 5 5 4 4 4 4 3 3 3 3 2 3 5 6 11 7 11 11 2 1 3 3 4 4 3 3 2 2 1 1 1 1 1 1 1 2 1 1 1 2 2 1
6 9 8 5 4 4 4 4 3 3 3 2 2 3 3 1 3 3 2 1 2 2 3 3 4 3 3 3 2 1 1 1 1 1 2 1 1 1 2 2 1 1 0
6 6 7 4 4 4 4 4 3 3 3 3 3 3 6 3 0 1 2 3 3 3 3 3 3 2 2 2 3 3 2 2 2 2 2 2 1 2 2 1 1 1 2
6 6 5 6 5 5 4 4 3 3 3 3 3 2 6 2 0 2 3 4 3 4 4 3 3 2 1 1 2 3 4 3 3 2 3 2 2 2 2 1 1 1 2
7 8 7 4 4 4 3 3 3 3 3 3 2 2 1 1 2 3 3 4 4 4 3 2 3 3 2 2 2 2 3 4 4 2 3 3 3 2 2 2 2 2 3
7 8 8 5 5 4 4 4 3 4 4 3 2 3 3 2 3 3 4 4 3 4 3 3 3 5 3 3 3 3 3 4 3 4 5 4 4 3 2 2 3 3 3
7 6 7 7 6 5 4 3 3 3 3 3 3 3 2 2 3 3 4 4 4 3 5 4 4 5 7 7 6 6 7 10 7 6 4 5 5 5 3 3 2 3 3
7 6 5 5 4 4 4 4 4 4 4 3 3 3 3 3 4 4 4 4 4 4 5 4 5 9 8 7 7 9 10 11 10 10 6 5 5 4 3 4 4 3 3
Wind_Direction
104 107 103 99 99 96 100 102 105 102 99 91 88 77 64 59 52 59 43 26 21 7 2 360 339 333 329 318 313 301 311 311 292 305 315 321 318 314 311 310 307 304 308
111 112 109 112 107 109 108 108 106 100 80 88 86 80 64 50 45 50 40 18 16 5 353 353 345 345 340 332 333 330 313 308 298 299 312 315 315 314 314 315 317 309 310
124 117 115 115 117 117 116 114 107 113 106 89 82 73 64 57 52 39 34 18 10 360 346 338 328 336 338 336 329 316 312 302 295 292 302 310 309 313 314 311 311 310 314
127 124 124 127 130 127 122 120 121 113 104 93 92 95 67 50 53 35 26 11 353 345 331 327 329 336 330 325 316 313 306 304 299 292 299 308 310 313 307 317 312 310 315
133 130 136 128 126 131 127 117 115 107 101 95 89 73 58 50 28 33 18 3 347 338 342 338 332 328 326 322 314 306 295 296 297 303 303 306 313 318 320 314 302 320 317
139 141 136 132 141 140 132 131 125 110 97 81 69 59 45 44 39 25 10 342 344 341 335 334 329 326 323 320 319 316 314 320 314 302 302 303 308 312 306 326 316 324 321
145 145 146 149 146 146 144 136 125 112 99 68 52 41 20 11 14 14 352 341 332 326 323 328 316 315 316 313 308 311 308 290 290 297 300 301 303 314 332 325 322 311 306
150 152 154 153 145 149 144 137 122 100 87 90 64 356 304 289 285 331 331 332 328 321 322 322 308 316 303 317 316 305 293 286 283 292 295 304 303 332 330 322 310 303 297
162 164 167 158 152 153 140 126 108 103 109 122 207 259 248 283 306 301 299 297 287 292 300 314 316 291 309 322 311 303 301 300 288 296 317 319 345 342 344 338 349 336 322
171 167 156 150 151 147 140 134 118 136 119 91 306 276 281 281 310 305 289 220 288 302 308 282 319 321 319 316 307 301 314 312 309 305 313 345 1 354 12 34 334 326 308
144 138 141 147 146 140 135 131 128 110 102 58 312 312 301 276 296 343 337 317 263 312 312 309 308 299 307 317 314 276 307 318 324 316 332 310 314 324 318 337 343 344 323
143 145 149 147 148 140 142 123 118 126 121 187 36 310 282 285 342 353 336 322 322 310 290 290 285 294 293 318 324 319 325 327 342 337 339 312 334 326 313 294 305 324 333
145 147 144 137 140 146 133 141 143 142 149 145 202 219 285 311 322 316 321 320 311 302 286 276 304 312 301 306 306 320 350 329 316 325 315 304 275 282 297 309 287 295 292
144 145 145 149 151 150 140 140 128 139 75 3 285 326 320 317 312 298 275 288 289 290 280 270 283 305 293 282 242 311 330 315 290 299 291 265 292 322 316 299 330 315 27
136 143 151 158 167 130 129 156 165 201 160 208 229 185 194 281 287 307 316 309 294 289 318 293 332 309 285 265 250 259 316 311 313 301 299 301 296 312 318 329 353 357 45
145 154 173 166 131 142 148 133 26 74 231 301 327 331 257 305 310 311 312 313 321 324 309 313 310 283 285 268 238 261 223 295 296 294 303 300 297 314 315 336 17 33 41
157 160 148 137 153 153 154 129 122 343 340 310 337 339 330 319 324 312 321 329 339 337 334 299 291 293 289 269 219 208 231 255 301 307 314 313 315 310 344 332 346 34 3
146 146 154 158 156 149 149 148 128 169 212 290 320 331 340 338 325 336 349 1 353 348 327 284 291 288 280 260 241 219 221 253 245 293 310 313 330 312 329 320 324 214 128
141 143 146 145 151 149 137 147 179 174 168 226 321 333 324 340 351 3 9 76 311 308 313 312 291 298 303 303 294 291 290 270 261 267 267 297 325 336 294 294 296 353 157
140 156 162 155 144 149 169 177 170 166 170 207 224 235 277 75 29 329 344 332 311 278 288 296 300 311 315 318 319 322 292 275 282 276 264 280 301 286 257 259 272 249 257
152 148 145 129 159 179 179 181 171 159 190 210 235 237 316 107 282 258 287 291 270 283 283 282 292 305 321 330 324 320 311 302 282 271 273 274 291 261 233 242 198 169 143
152 155 156 171 172 182 191 179 172 176 192 202 243 281 348 85 89 268 276 272 254 238 240 254 283 262 252 289 319 316 312 295 281 279 275 266 251 255 239 220 209 182 185
159 163 171 170 174 171 165 174 170 176 194 209 218 254 288 258 257 258 262 261 257 261 255 247 267 284 252 256 275 276 291 295 291 270 280 276 265 247 222 222 196 201 205
178 175 171 172 167 176 176 181 186 184 188 195 209 233 235 241 257 266 267 273 269 273 264 246 236 241 239 230 232 234 241 262 262 266 271 273 269 257 231 224 219 223 223
171 176 178 174 176 176 172 185 189 187 195 196 214 225 237 255 270 267 270 271 269 266 261 249 238 240 244 244 243 240 236 257 259 238 242 253 260 253 243 242 232 222 214
170 173 172 159 165 172 181 188 198 202 208 207 224 225 228 239 246 250 258 264 265 264 262 253 245 250 254 252 250 253 253 255 245 236 227 236 247 246 227 236 232 228 211